Location: Newark
(45.9456°N, 15.4064°E)
Time: 04:36:22
(UTC+00:00)

SR - Pass Details

Date: 30 January 2020
Orbit: 575 x 881 km, 66.7° (Epoch: 19 February)

Event Time Altitude Azimuth Distance (km) Brightness Sun altitude
Rises 19:52:36 0° 207° (SSW) 3,407 - -40.2°
Reaches altitude 10° 19:55:02 10° 206° (SSW) 2,498 - -40.6°
Maximum altitude 20:00:52 80° 121° (ESE) 898 - -41.6°
Drops below altitude 10° 20:06:49 10° 35° (NE) 2,535 - -42.6°
Sets 20:09:18 0° 35° (NE) 3,460 - -43.0°
